Home   Weather   Nanjing   Past weeks

Flag for China Past Weather in Nanjing, Jiangsu, China — Yesterday and Last 2 Weeks

Now
30 °F

Passing clouds.


Feels Like: 30 °F
Forecast: 26 / 43 °F
Wind: 1 mph from West

Location: Nanjing

Current Time: Jan 21, 2017 at 11:52:23 pm

Latest Report: Jan 21, 2017 at 11:00 pm


Visibility: 5 mi

Pressure: 30.51 "Hg

Humidity: 86%

Dew Point: 27 °F

Location of NanjingLocation

Past Weather in Nanjing — Graph

°F

Nanjing Temperature Yesterday

Maximum temperature yesterday: 39 °F (at 1:00 pm)
Minimum temperature yesterday: 28 °F (at 10:00 pm)
Average temperature yesterday: 34 °F

High & Low Weather Summary for the Past Weeks

 TemperatureHumidityPressure
High54 °F (Jan 13, 2:00 pm)100% (Jan 6, 10:00 pm)30.63 "Hg (Jan 6, 10:00 pm)
Low23 °F (Jan 21, 4:00 am)24% (Jan 20, 3:00 pm)29.98 "Hg (Jan 7, 2:00 pm)
Average40 °F76%30.33 "Hg
* Reported Jan 6 10:00 pm — Jan 21 10:00 pm, Nanjing, Weather by CustomWeather, © 2017

Note: Actual official high and low records may vary slightly from our data, if they occured in-between our weather recording intervals... More about our weather records

Advertising

Nanjing Weather History for the Previous 24 Hours

Scroll right to see more
 ConditionsComfort  
Time TempWeatherWind HumidityBarometerVisibility
10:00 pm
Sat, Jan 21
30 °FPassing clouds.1 mph86%30.48 "Hg5 mi
9:00 pm30 °FClear.1 mph80%30.48 "Hg6 mi
8:00 pm34 °FClear.1 mph70%30.45 "Hg10 mi
7:00 pm36 °FClear.1 mph60%30.42 "Hg10 mi
6:00 pm39 °FClear.1 mph52%30.39 "Hg10 mi
5:00 pm43 °FSunny.6 mph42%30.39 "Hg10 mi
4:00 pm46 °FPassing clouds.8 mph32%30.36 "HgN/A
3:00 pm46 °FPassing clouds.8 mph29%30.36 "HgN/A
2:00 pm46 °FSunny.3 mph34%30.36 "Hg10 mi
1:00 pm43 °FPassing clouds.6 mph39%30.39 "HgN/A
12:00 pm43 °FPassing clouds.3 mph36%30.42 "HgN/A
11:00 am39 °FSunny.3 mph45%30.48 "Hg10 mi
10:00 am36 °FSunny.1 mph56%30.51 "Hg10 mi
9:00 am32 °FSunny.1 mph64%30.51 "Hg10 mi
8:00 am25 °FClear.1 mph93%30.45 "Hg5 mi
7:00 am23 °FClear.1 mph93%30.48 "Hg5 mi
6:00 am23 °FClear.1 mph93%30.48 "Hg10 mi
5:00 am25 °FClear.1 mph93%30.48 "Hg10 mi
4:00 am23 °FClear.1 mph100%30.48 "Hg10 mi
3:00 am25 °FClear.No wind93%30.51 "Hg10 mi
2:00 am25 °FClear.1 mph93%30.51 "Hg10 mi
1:00 am25 °FClear.1 mph93%30.54 "Hg10 mi
12:00 am27 °FClear.1 mph80%30.57 "Hg10 mi
11:00 pm
Fri, Jan 20
28 °FClear.1 mph69%30.54 "Hg10 mi
Weather by CustomWeather, © 2017

See weather overviewHow to use our weather pages